Location: Unspecified
(54.1780°N, 0.0000°E)
Time: 07:12:33
(UTC+00:00)

Transit 2A - Pass Details

Date: 20 June 2019
Orbit: 594 x 964 km, 66.7° (Epoch: 19 July)

Event Time Altitude Azimuth Distance (km) Brightness Sun altitude
Rises 23:18:19 0° 163° (SSE) 3,629 - -11.8°
Reaches altitude 10° 23:21:42 10° 145° (SE) 2,698 - -11.9°
Exits shadow 23:22:08 11° 142° (SE) 2,600 8.2 -11.9°
Maximum altitude 23:25:46 18° 105° (ESE) 2,163 8.1 -12.0°
Drops below altitude 10° 23:29:49 10° 65° (ENE) 2,673 9.0 -12.1°
Sets 23:33:07 0° 48° (NE) 3,582 10.0 -12.1°
